FW2284 Weather Reports


Display with metric or nautical units.
time (UTC)temp
F
wind
direction
speed
MPH
gust
MPH
rain 1hr
in
rain 24hr
in
rain mn
in
humidity
%
barometer
mb
20260508121602 54 230 5.0 7.0 0.00 0.00 0.00 69 1012.4
20260508120054 52 209 3.0 6.0 0.00 0.00 0.00 71 1012.6
20260508114521 52 214 3.0 8.0 0.00 0.00 0.00 71 1012.4
20260508113017 51 184 4.0 8.0 0.00 0.00 0.00 71 1012.3
20260508111516 50 211 4.0 7.0 0.00 0.00 0.00 72 1012.1
20260508110015 49 154 3.0 6.0 0.00 0.00 0.00 74 1012.1
20260508104520 49 205 3.0 6.0 0.00 0.00 0.00 74 1012.2
20260508103013 49 162 2.0 5.0 0.00 0.00 0.00 74 1012.3
20260508101516 50 203 3.0 6.0 0.00 0.00 0.00 74 1012.4
20260508100012 49 210 3.0 6.0 0.00 0.00 0.00 74 1012.4
20260508094511 49 195 3.0 7.0 0.00 0.00 0.00 74 1012.4
20260508093027 49 122 3.0 6.0 0.00 0.00 0.00 76 1012.5
20260508091535 49 156 1.0 3.0 0.00 0.00 0.00 75 1012.5
20260508090035 49 177 1.0 4.0 0.00 0.00 0.00 73 1012.5
20260508084520 50 198 1.0 3.0 0.00 0.00 0.00 72 1012.4
20260508083017 51 161 1.0 5.0 0.00 0.00 0.00 69 1012.5
20260508081517 51 195 2.0 5.0 0.00 0.00 0.00 69 1012.5
20260508080030 51 170 2.0 4.0 0.00 0.00 0.00 69 1012.7
20260508074523 51 216 2.0 5.0 0.00 0.00 0.00 69 1012.7
20260508073011 51 186 1.0 5.0 0.00 0.00 0.00 69 1012.9
20260508071522 51 158 1.0 2.0 0.00 0.00 0.00 68 1013.1
20260508070008 51 157 1.0 5.0 0.00 0.00 0.00 68 1013.0
20260508064507 52 159 1.0 4.0 0.00 0.00 0.00 67 1013.2
20260508063005 51 159 1.0 3.0 0.00 0.00 0.00 67 1013.4
20260508061502 52 148 1.0 3.0 0.00 0.00 0.00 66 1013.6
20260508060001 52 150 1.0 5.0 0.00 0.00 0.00 66 1013.8
20260508054601 52 209 1.0 4.0 0.00 0.00 0.00 66 1013.9
20260508053059 52 189 1.0 3.0 0.00 0.00 0.00 66 1014.0
20260508051657 52 162 1.0 3.0 0.00 0.00 0.00 66 1013.9
20260508050056 52 161 0.0 2.0 0.00 0.00 0.00 67 1013.9
20260508044555 52 220 0.0 3.0 0.00 0.00 0.00 68 1013.9
20260508043106 52 142 0.0 2.0 0.00 0.00 0.00 68 1014.0
20260508041554 52 157 0.0 2.0 0.00 0.00 0.00 68 1014.0
20260508040053 52 155 1.0 3.0 0.00 0.00 0.00 69 1013.9
20260508034553 51 165 1.0 2.0 0.00 0.00 0.00 74 1014.0
20260508033052 50 204 0.0 2.0 0.00 0.00 0.00 78 1014.1
20260508031552 50 159 0.0 1.0 0.00 0.00 0.00 77 1014.1
20260508030052 50 164 0.0 1.0 0.00 0.00 0.00 79 1014.2
20260508024554 51 207 0.0 1.0 0.00 0.00 0.00 75 1014.3
20260508023050 51 208 0.0 0.0 0.00 0.00 0.00 72 1014.3
20260508021552 52 138 0.0 0.0 0.00 0.00 0.00 74 1014.2
20260508020050 52 138 0.0 2.0 0.00 0.00 0.00 71 1014.1
20260508014548 53 188 0.0 0.0 0.00 0.00 0.00 69 1014.0
20260508013047 55 188 0.0 0.0 0.00 0.00 0.00 63 1013.9
20260508011547 57 188 0.0 0.0 0.00 0.00 0.00 60 1013.8
20260508010046 60 188 0.0 0.0 0.00 0.00 0.00 54 1013.6
20260508004546 64 217 0.0 0.0 0.00 0.00 0.00 44 1013.4
20260508003044 66 217 0.0 1.0 0.00 0.00 0.00 39 1013.4
20260508001545 67 242 1.0 3.0 0.00 0.00 0.00 38 1013.1
20260508000045 66 227 2.0 8.0 0.00 0.00 0.00 37 1013.2
20260507234544 66 236 3.0 9.0 0.00 0.00 0.00 38 1013.2
20260507233041 67 218 3.0 7.0 0.00 0.00 0.00 38 1013.2
20260507231546 67 259 2.0 9.0 0.00 0.00 0.00 37 1013.3
20260507230039 67 262 4.0 12.0 0.00 0.00 0.00 37 1013.5
20260507224539 67 158 3.0 11.0 0.00 0.00 0.00 39 1013.5
20260507223037 67 262 5.0 11.0 0.00 0.00 0.00 39 1013.6
20260507221536 67 209 2.0 9.0 0.00 0.00 0.00 37 1013.6
20260507220036 66 248 3.0 9.0 0.00 0.00 0.00 38 1013.7
20260507214548 67 249 4.0 12.0 0.00 0.00 0.00 37 1013.7
20260507213033 67 231 2.0 6.0 0.00 0.00 0.00 38 1013.8
20260507211532 66 239 5.0 10.0 0.00 0.00 0.00 39 1013.9
20260507210044 66 186 4.0 11.0 0.00 0.00 0.00 36 1014.2
20260507204526 65 304 5.0 20.0 0.00 0.00 0.00 35 1014.5
20260507203024 66 269 6.0 14.0 0.00 0.00 0.00 38 1014.8
20260507201523 66 295 6.0 12.0 0.00 0.00 0.00 37 1015.0
20260507200024 65 338 4.0 11.0 0.00 0.00 0.00 38 1015.3
20260507194524 65 276 4.0 13.0 0.00 0.00 0.00 35 1015.2
20260507193020 66 317 5.0 16.0 0.00 0.00 0.00 41 1015.3
20260507191518 65 219 7.0 15.0 0.00 0.00 0.00 38 1015.5
20260507190016 65 314 5.0 16.0 0.00 0.00 0.00 41 1015.7
20260507184518 65 211 3.0 14.0 0.00 0.00 0.00 40 1015.8
20260507183013 65 184 4.0 12.0 0.00 0.00 0.00 38 1015.9
20260507181512 64 288 4.0 12.0 0.00 0.00 0.00 37 1016.0
20260507180011 64 114 3.0 14.0 0.00 0.00 0.00 40 1016.2
20260507174510 63 245 5.0 12.0 0.00 0.00 0.00 40 1016.6
20260507173004 63 154 4.0 10.0 0.00 0.00 0.00 42 1016.7
20260507171501 61 286 3.0 14.0 0.00 0.00 0.00 43 1016.8
20260507170104 62 272 6.0 16.0 0.00 0.00 0.00 47 1017.1
20260507164607 61 193 4.0 14.0 0.00 0.00 0.00 42 1017.4
20260507163103 61 271 4.0 13.0 0.00 0.00 0.00 43 1017.4
20260507161555 60 182 4.0 11.0 0.00 0.00 0.00 47 1017.6
20260507160053 60 209 5.0 9.0 0.00 0.00 0.00 48 1017.5
20260507154552 60 208 3.0 9.0 0.00 0.00 0.00 49 1017.9
20260507153046 59 142 5.0 10.0 0.00 0.00 0.00 49 1017.8
20260507151543 58 214 4.0 8.0 0.00 0.00 0.00 49 1018.0
20260507150043 57 190 5.0 8.0 0.00 0.00 0.00 51 1018.1
20260507144538 56 269 4.0 9.0 0.00 0.00 0.00 52 1018.3
20260507143038 56 219 5.0 9.0 0.00 0.00 0.00 59 1018.4
20260507141532 55 118 4.0 9.0 0.00 0.00 0.00 61 1018.5
20260507140030 54 207 5.0 9.0 0.00 0.00 0.00 57 1018.5
20260507134530 53 211 3.0 6.0 0.00 0.00 0.00 64 1018.6
20260507133024 51 217 3.0 8.0 0.00 0.00 0.00 68 1018.5
20260507131523 50 240 2.0 6.0 0.00 0.00 0.00 69 1018.6
20260507130027 48 238 3.0 5.0 0.00 0.00 0.00 74 1018.5
20260507124519 47 174 2.0 6.0 0.00 0.00 0.00 78 1018.5
20260507123009 45 218 1.0 3.0 0.00 0.00 0.00 82 1018.2